Location: Unspecified
(0.0000°N, 0.0000°E)
Time: 06:55:26
(UTC+00:00)

Courier 1B - Pass Details

Date: 29 September 2023
Orbit: 962 x 1208 km, 28.3° (Epoch: 06 December)

Event Time Altitude Azimuth Distance (km) Brightness Sun altitude
Rises 11:53:19 0° 296° (WNW) 3,956 10.7 87.5°
Reaches altitude 10° 11:59:35 10° 334° (NNW) 3,063 10.2 86.7°
Maximum altitude 12:00:44 10° 343° (NNW) 3,046 10.2 86.5°
Drops below altitude 10° 12:01:54 10° 352° (N) 3,083 10.2 86.2°
Sets 12:08:23 0° 31° (NNE) 4,086 10.7 84.9°
